Atwater, CA

8:02 AM PST on December 16, 2017 (GMT -0800)
Castle

Weather History for KMER - November, 2013

Change the Weather History Date:

Thursday, November 14, 2013

  Actual Average (KMCE) Record (KMCE)
Temperature  
Mean Temperature 59 °F -  
Max Temperature 77 °F 64 °F 77 °F (2016)
Min Temperature 41 °F 40 °F 32 °F (2009)
Degree Days  
Heating Degree Days 6    
Growing Degree Days 9 (Base 50)    
Moisture  
Dew Point 45 °F    
Average Humidity 79    
Maximum Humidity 100    
Minimum Humidity 29    
Precipitation  
Precipitation 0.00 in - - ()
Sea Level Pressure  
Sea Level Pressure 29.98 in    
Wind  
Wind Speed 3 mph (NNE)    
Max Wind Speed 12 mph    
Max Gust Speed -    
Visibility 6 miles    
Events      
Averages and records for this station are not official NWS values.
T = Trace of Precipitation, MM = Missing Value Source: NWS Daily Summary

Daily Weather History Graph

Daily Weather History Graph

Search for Another Location

Airport or City:

Trip Planner

Search our weather history database for the weather conditions in past years. The results will help you decide how hot, cold, wet, or windy it might be!

Date:

Astronomy

Nov. 14, 2013 Rise Set
Actual Time 6:40 AM PST 4:52 PM PST
Civil Twilight 6:13 AM PST 5:20 PM PST
Nautical Twilight 5:41 AM PST 5:51 PM PST
Astronomical Twilight 5:10 AM PST 6:22 PM PST
Moon 3:13 PM PST (11/14) 3:44 AM PST (11/14)
Length of Visible Light 11h 06m
Length of Day
10h 11m
Waxing Gibbous, 92% of the Moon is Illuminated
Nov 14
Waxing Gibbous
Nov 17
Full
Nov 25
Last Quarter
Dec 2
New
Dec 9
First Quarter

Hourly Weather History & Observations

Time (PST) Temp. Windchill Dew Point Humidity Pressure Visibility Wind Dir Wind Speed Gust Speed Precip Events Conditions
12:15 AM 48.2 °F - 44.6 °F 87% 30.10 in 6.0 mi South 4.6 mph - N/A   Clear
12:35 AM 48.2 °F - 44.6 °F 87% 30.10 in 6.0 mi SSE 3.5 mph - N/A   Clear
12:55 AM 46.4 °F 44.3 °F 44.6 °F 93% 30.10 in 6.0 mi SE 4.6 mph - N/A   Clear
1:15 AM 46.4 °F - 44.6 °F 93% 30.10 in 7.0 mi Calm Calm - N/A   Clear
1:35 AM 46.4 °F 45.2 °F 44.6 °F 93% 30.10 in 7.0 mi ESE 3.5 mph - N/A   Clear
1:55 AM 46.4 °F - 44.6 °F 93% 30.10 in 7.0 mi Calm Calm - N/A   Clear
2:15 AM 46.4 °F 45.2 °F 44.6 °F 93% 30.09 in 7.0 mi SE 3.5 mph - N/A   Clear
2:35 AM 46.4 °F - 44.6 °F 93% 30.08 in 7.0 mi Calm Calm - N/A   Clear
2:55 AM 48.2 °F - 44.6 °F 87% 30.08 in 7.0 mi SSE 3.5 mph - N/A   Clear
3:15 AM 46.4 °F - 44.6 °F 93% 30.07 in 7.0 mi Calm Calm - N/A   Clear
3:35 AM 48.2 °F - 44.6 °F 87% 30.08 in 7.0 mi Calm Calm - N/A   Clear
3:55 AM 48.2 °F - 44.6 °F 87% 30.07 in 8.0 mi Calm Calm - N/A   Clear
4:15 AM 46.4 °F - 42.8 °F 87% 30.07 in 7.0 mi North - - N/A   Clear
4:35 AM 46.4 °F - 42.8 °F 87% 30.06 in 7.0 mi Calm Calm - N/A   Clear
4:55 AM 44.6 °F - 42.8 °F 93% 30.06 in 7.0 mi Calm Calm - N/A   Clear
5:15 AM 44.6 °F - 44.6 °F 100% 30.06 in 7.0 mi Calm Calm - N/A   Clear
5:35 AM 44.6 °F - 44.6 °F 100% 30.06 in 6.0 mi Calm Calm - N/A   Clear
5:55 AM 42.8 °F - 42.8 °F 100% 30.06 in 5.0 mi Calm Calm - N/A   Clear
6:45 AM 41.0 °F - 41.0 °F 100% 30.06 in 4.0 mi Calm Calm - N/A   Haze
7:45 AM 46.4 °F - 46.4 °F 100% 30.07 in 4.0 mi Calm Calm - N/A   Haze
8:45 AM 57.2 °F - 44.6 °F 63% 30.07 in 4.0 mi Variable 4.6 mph - N/A   Haze
9:45 AM 64.4 °F - 44.6 °F 49% 30.07 in 4.0 mi Variable 4.6 mph - N/A   Haze
10:45 AM 69.8 °F - 42.8 °F 38% 30.06 in 3.0 mi Variable 4.6 mph - N/A   Haze
11:45 AM 73.4 °F - 42.8 °F 33% 30.01 in 3.0 mi Variable 4.6 mph - N/A   Haze
12:45 PM 75.2 °F - 42.8 °F 31% 29.97 in 3.0 mi Variable 4.6 mph - N/A   Haze
1:45 PM 77.0 °F - 42.8 °F 29% 29.94 in 4.0 mi NW 6.9 mph - N/A   Haze
2:45 PM 75.2 °F - 42.8 °F 31% 29.92 in 4.0 mi NW 6.9 mph - N/A   Haze
3:45 PM 73.4 °F - 44.6 °F 36% 29.91 in 4.0 mi NNW 8.1 mph - N/A   Haze
4:45 PM 68.0 °F - 44.6 °F 43% 29.89 in 4.0 mi NNW 8.1 mph - N/A   Haze
5:45 PM 60.8 °F - 46.4 °F 59% 29.88 in 4.0 mi NNW 8.1 mph - N/A   Haze
6:45 PM 60.8 °F - 46.4 °F 59% 29.87 in 5.0 mi NNW 8.1 mph - N/A   Haze
7:45 PM 55.4 °F - 46.4 °F 72% 29.86 in 5.0 mi NNW 8.1 mph - N/A   Haze
8:15 PM 55.4 °F - 46.4 °F 72% 29.86 in 7.0 mi North 5.8 mph - N/A   Clear
8:35 PM 55.4 °F - 48.2 °F 77% 29.86 in 6.0 mi NNE 9.2 mph - N/A   Clear
8:45 PM 55.4 °F - 48.2 °F 77% 29.86 in 5.0 mi North 11.5 mph - N/A   Haze
8:55 PM 55.4 °F - 48.2 °F 77% 29.85 in 8.0 mi NNE 4.6 mph - N/A   Clear
9:15 PM 53.6 °F - 48.2 °F 82% 29.85 in 5.0 mi NNE 4.6 mph - N/A   Clear
9:35 PM 51.8 °F - 48.2 °F 88% 29.85 in 5.0 mi NE 3.5 mph - N/A   Clear
9:55 PM 50.0 °F - 50.0 °F 100% 29.85 in 6.0 mi NNE 3.5 mph - N/A   Clear
10:15 PM 48.2 °F - 48.2 °F 100% 29.84 in 7.0 mi NE 3.5 mph - N/A   Clear
10:55 PM 48.2 °F - 48.2 °F 100% 29.84 in 6.0 mi NE 3.5 mph - N/A   Clear
11:15 PM 48.2 °F - 48.2 °F 100% 29.84 in 8.0 mi NE 8.1 mph - N/A   Clear
11:35 PM 48.2 °F - 48.2 °F 100% 29.83 in 8.0 mi NNE 4.6 mph - N/A   Clear
11:55 PM 48.2 °F - 48.2 °F 100% 29.83 in 8.0 mi NE 8.1 mph - N/A   Clear